[[{"header":{"parameterUnit":"m.s-1","parameterCategory":1,"la1":30.2991,"la2":30.254,"lo1":-89.0895,"lo2":-89.0444,"dy":0.0017,"dx":0.0017,"nx":28,"ny":28,"refTime":"2025-01-26T03:00:00:Z","depth":0,"parameterNumber":2,"parameterNumberName":"U-component_of_WINDS"},"data":[0,0,0,0,0,0,0,0,0,0,0,0,0,0,0,0,0,0,0,0,0,0,0,0,0,0,0,0,0,0,0,0,0,0,0,0,0,0,0,0,0,0,0,0,0,0,0,0,0,0,0,0,0,0,0,0,0,0,1.0243,1.0243,0,1.0263,1.0263,1.0263,1.0271,1.0271,1.0271,1.0271,1.0289,1.0289,1.029,0,0,0,0,0,0,0,0,0,0,0,0,0,1.0212,1.0213,1.0243,1.0243,1.0243,1.0263,1.0263,1.0263,1.0271,1.0271,1.0271,1.0271,1.0289,1.0289,1.029,0,0,0,0,0,0,0,0,0,0,0,0,0,1.0228,1.0213,1.0243,1.025,1.0251,1.0262,1.0263,1.0263,1.0271,1.0271,1.0271,1.0271,1.0288,1.0289,1.029,1.0296,0,0,1.0292,1.0292,0,0,0,0,0,0,0,0,1.0227,1.0229,1.0248,1.0249,1.025,1.0264,1.0258,1.0274,1.0271,1.0263,1.0271,1.0271,1.0281,1.0282,1.0286,1.0296,1.0297,1.0292,1.0293,1.0293,1.0293,0,0,0,0,0,0,0,1.0226,1.0228,1.0251,1.0249,1.025,1.0252,1.0254,1.0261,1.0272,1.0264,1.0265,1.0267,1.0281,1.0285,1.0286,1.0297,1.0292,1.0293,1.0293,1.0294,1.0317,1.0317,0,0,0,0,0,0,1.0224,1.0227,1.025,1.0251,1.0238,1.0252,1.0255,1.026,1.0272,1.0274,1.0267,1.0267,1.0284,1.0285,1.0287,1.0296,1.0293,1.0294,1.0294,1.0316,1.0317,1.0317,0,0,0,0,0,0,1.0223,1.0226,1.0249,1.0239,1.0243,1.0253,1.0259,1.026,1.0264,1.0274,1.0276,1.0269,1.0284,1.0286,1.0294,1.0296,1.0294,1.0295,1.0316,1.0317,1.0317,1.0313,0,0,0,0,0,0,1.0222,1.0225,1.0227,1.0239,1.0243,1.0256,1.0259,1.0261,1.0266,1.0266,1.0277,1.0278,1.0284,1.0293,1.0295,1.0297,1.0295,1.0316,1.0316,1.0317,1.0313,1.0313,1.0313,0,0,0,0,0,1.0221,1.0224,1.0227,1.023,1.0246,1.0256,1.0258,1.0265,1.0266,1.0268,1.0275,1.0278,1.0296,1.0294,1.0296,1.0299,1.0316,1.0316,1.0317,1.0312,1.0313,1.0313,0,0,0,0,0,0,1.0211,1.0226,1.0229,1.0237,1.0245,1.0257,1.026,1.0265,1.0272,1.0272,1.028,1.0283,1.0291,1.0296,1.0293,1.0306,1.0306,1.0307,1.0302,1.0303,1.0303,1.0301,1.0296,0,0,0,0,0,1.021,1.0217,1.023,1.0235,1.0239,1.0249,1.0254,1.0259,1.0268,1.0271,1.0278,1.0286,1.0294,1.0299,1.0306,1.0314,1.0317,1.0317,1.0317,1.0317,1.0318,1.0324,1.0325,1.0318,1.0318,1.0318,0,0,1.0207,1.0216,1.022,1.0233,1.024,1.0248,1.0252,1.0259,1.0265,1.0272,1.0281,1.0287,1.0296,1.0305,1.0309,1.0309,1.0321,1.0318,1.0318,1.0318,1.0324,1.0325,1.0325,1.0318,1.0318,1.0318,0,0,1.0205,1.0213,1.0219,1.0227,1.0239,1.0246,1.0247,1.026,1.0264,1.0274,1.028,1.0287,1.0299,1.0307,1.0312,1.0317,1.0321,1.032,1.032,1.0326,1.0326,1.0327,1.0329,1.033,1.032,1.032,1.032,0,1.02,1.0212,1.0221,1.023,1.0236,1.0244,1.0251,1.0258,1.0271,1.0275,1.0276,1.0294,1.0301,1.0312,1.0314,1.0318,1.032,1.0318,1.0326,1.0326,1.0327,1.0329,1.033,1.032,1.032,1.032,1.032,0,1.0206,1.0214,1.0218,1.0232,1.0239,1.0246,1.0257,1.0263,1.0269,1.0276,1.0286,1.0296,1.0306,1.0309,1.0314,1.0322,1.0322,1.0324,1.0324,1.0327,1.033,1.0331,1.032,1.032,1.032,1.032,0,0,1.0196,1.0218,1.0219,1.0226,1.0241,1.0248,1.0256,1.0268,1.0274,1.0283,1.0291,1.0303,1.0306,1.0312,1.0318,1.0323,1.0329,1.0325,1.0325,1.0326,1.034,1.0338,1.0339,1.0332,1.0332,1.0332,1.0339,0,1.0197,1.0212,1.0223,1.0235,1.0243,1.0253,1.0261,1.0271,1.0279,1.0288,1.0296,1.0305,1.0308,1.0312,1.0318,1.0327,1.0332,1.0326,1.0339,1.0339,1.0336,1.034,1.0338,1.0344,1.034,1.034,1.0341,0,1.0199,1.021,1.0223,1.024,1.0244,1.025,1.0263,1.0272,1.0284,1.029,1.0298,1.0305,1.0315,1.0316,1.033,1.0327,1.0333,1.0338,1.0339,1.0339,1.0339,1.0341,1.0346,1.0347,1.0342,1.0342,1.0342,0,1.0191,1.021,1.0221,1.0227,1.0246,1.025,1.0259,1.0271,1.0279,1.029,1.0295,1.0307,1.0314,1.0323,1.0333,1.0332,1.0347,1.0348,1.0352,1.0352,1.0354,1.0353,1.0359,1.0358,1.0358,1.0358,1.0358,0,1.0191,1.0199,1.0218,1.0224,1.0234,1.0246,1.0256,1.0264,1.0276,1.0285,1.0294,1.0303,1.0316,1.0326,1.0334,1.0345,1.0348,1.0353,1.0355,1.0352,1.0351,1.0355,1.0355,1.0358,1.0358,1.0358,1.0358,0,1.0183,1.0196,1.0209,1.0227,1.0232,1.0238,1.0254,1.0261,1.0271,1.0282,1.0285,1.03,1.0313,1.0325,1.0341,1.0346,1.0358,1.0361,1.0354,1.0355,1.0359,1.0358,1.0367,1.0369,1.0367,1.0367,1.0367,0,1.0182,1.0188,1.0208,1.0215,1.0224,1.0235,1.0243,1.0257,1.0265,1.0282,1.0287,1.0301,1.0312,1.0332,1.0344,1.0357,1.036,1.0363,1.0362,1.0359,1.0361,1.036,1.0361,1.0362,1.0362,1.0362,1.0362,0,1.0178,1.0185,1.0197,1.0212,1.0222,1.0234,1.0246,1.0251,1.0267,1.0276,1.029,1.0299,1.0317,1.0331,1.0346,1.0355,1.0361,1.0362,1.0364,1.0361,1.0357,1.0359,1.0354,1.0362,1.0362,1.0362,1.0362,1.0362,1.0174,1.0181,1.0196,1.021,1.0221,1.0233,1.0242,1.0253,1.0265,1.0282,1.0289,1.0304,1.0319,1.034,1.0349,1.036,1.0361,1.0364,1.0364,1.0365,1.0364,1.0356,1.0363,1.0363,1.0363,1.0363,1.0363,0,1.0171,1.0182,1.0195,1.0213,1.0224,1.0231,1.0246,1.0254,1.0267,1.0281,1.0293,1.031,1.0324,1.0339,1.0354,1.036,1.0364,1.0364,1.0363,1.0365,1.0362,1.0359,1.0361,1.0361,1.0361,1.0361,1.0361,1.0361,1.0171,1.0183,1.0193,1.0212,1.0223,1.0238,1.0246,1.0258,1.0269,1.0288,1.0301,1.0311,1.0325,1.0342,1.0356,1.036,1.0365,1.0364,1.0369,1.0365,1.0365,1.0365,1.0363,1.0365,1.0365,1.0372,1.0372,1.0372]},{"header":{"parameterUnit":"m.s-1","parameterCategory":1,"la1":30.2991,"la2":30.254,"lo1":-89.0895,"lo2":-89.0444,"dy":0.0017,"dx":0.0017,"nx":28,"ny":28,"refTime":"2025-01-26T03:00:00:Z","depth":0,"parameterNumber":3,"parameterNumberName":"V-component_of_WINDS"},"data":[0,0,0,0,0,0,0,0,0,0,0,0,0,0,0,0,0,0,0,0,0,0,0,0,0,0,0,0,0,0,0,0,0,0,0,0,0,0,0,0,0,0,0,0,0,0,0,0,0,0,0,0,0,0,0,0,0,0,-4.8915,-4.8916,0,-4.9004,-4.9005,-4.9006,-4.8997,-4.8995,-4.8994,-4.8993,-4.9075,-4.9079,-4.9082,0,0,0,0,0,0,0,0,0,0,0,0,0,-4.8733,-4.8737,-4.8915,-4.8916,-4.8917,-4.9004,-4.9005,-4.9006,-4.8997,-4.8995,-4.8994,-4.8992,-4.9074,-4.9078,-4.9082,0,0,0,0,0,0,0,0,0,0,0,0,0,-4.8816,-4.8738,-4.8915,-4.8924,-4.8925,-4.9003,-4.9005,-4.9006,-4.8997,-4.8995,-4.8993,-4.8991,-4.9073,-4.9078,-4.9083,-4.9156,0,0,-4.9099,-4.9101,0,0,0,0,0,0,0,0,-4.8811,-4.8823,-4.8921,-4.8923,-4.8925,-4.8987,-4.8971,-4.9056,-4.8998,-4.897,-4.8993,-4.899,-4.9047,-4.9054,-4.9075,-4.916,-4.9163,-4.9099,-4.9102,-4.9105,-4.9106,0,0,0,0,0,0,0,-4.8806,-4.8819,-4.895,-4.8923,-4.8925,-4.8921,-4.8931,-4.8987,-4.9018,-4.8972,-4.8972,-4.8983,-4.9048,-4.907,-4.9077,-4.9164,-4.9099,-4.9104,-4.9107,-4.9109,-4.9317,-4.9319,0,0,0,0,0,0,-4.8799,-4.8814,-4.8947,-4.8953,-4.8862,-4.8926,-4.8937,-4.8969,-4.9018,-4.9024,-4.8984,-4.8982,-4.9062,-4.9071,-4.908,-4.917,-4.9105,-4.9109,-4.9112,-4.9314,-4.9317,-4.932,0,0,0,0,0,0,-4.8795,-4.8811,-4.8943,-4.8883,-4.89,-4.8932,-4.8968,-4.8972,-4.8995,-4.9027,-4.9032,-4.9002,-4.9061,-4.9072,-4.9138,-4.9173,-4.9112,-4.9117,-4.9311,-4.9315,-4.9318,-4.9351,0,0,0,0,0,0,-4.879,-4.8809,-4.8838,-4.8884,-4.8903,-4.9002,-4.897,-4.8975,-4.9005,-4.9002,-4.9045,-4.905,-4.906,-4.9131,-4.9144,-4.9179,-4.9121,-4.9308,-4.9313,-4.9317,-4.9347,-4.9355,-4.9362,0,0,0,0,0,-4.8783,-4.8841,-4.884,-4.8856,-4.894,-4.9004,-4.9015,-4.9028,-4.9007,-4.9036,-4.9058,-4.9049,-4.9168,-4.9137,-4.9152,-4.9189,-4.9306,-4.9312,-4.9317,-4.9343,-4.9353,-4.9362,0,0,0,0,0,0,-4.8793,-4.8847,-4.8846,-4.8921,-4.8959,-4.9002,-4.9039,-4.9037,-4.9079,-4.9075,-4.9087,-4.9097,-4.9164,-4.9183,-4.9149,-4.9264,-4.9234,-4.9242,-4.9249,-4.9259,-4.9267,-4.926,-4.9125,0,0,0,0,0,-4.8805,-4.8855,-4.8898,-4.896,-4.8979,-4.9006,-4.9034,-4.9042,-4.908,-4.9095,-4.9121,-4.9157,-4.9203,-4.9232,-4.9275,-4.935,-4.936,-4.9384,-4.9391,-4.9397,-4.9404,-4.9448,-4.9459,-4.9337,-4.9337,-4.9337,0,0,-4.8828,-4.8864,-4.8893,-4.8963,-4.8993,-4.9043,-4.9019,-4.9072,-4.9109,-4.9102,-4.9167,-4.9188,-4.9228,-4.93,-4.9333,-4.9318,-4.9441,-4.9404,-4.9409,-4.9413,-4.9455,-4.9466,-4.9476,-4.9341,-4.934,-4.934,0,0,-4.8896,-4.8928,-4.8985,-4.9017,-4.9065,-4.9083,-4.9097,-4.9143,-4.9158,-4.9224,-4.9221,-4.9264,-4.9342,-4.9373,-4.9398,-4.9484,-4.9477,-4.9497,-4.9537,-4.9579,-4.9589,-4.9597,-4.9629,-4.964,-4.9504,-4.9504,-4.9504,0,-4.8918,-4.8995,-4.9013,-4.9068,-4.9099,-4.9101,-4.9158,-4.9187,-4.9245,-4.9266,-4.925,-4.9351,-4.9378,-4.9458,-4.948,-4.95,-4.9516,-4.9491,-4.9587,-4.9595,-4.9604,-4.9634,-4.9646,-4.9507,-4.9506,-4.9506,-4.9506,0,-4.9021,-4.9075,-4.9114,-4.9176,-4.9211,-4.9267,-4.9292,-4.9326,-4.9332,-4.9352,-4.9421,-4.9455,-4.9507,-4.9526,-4.953,-4.9608,-4.9598,-4.9584,-4.9554,-4.9617,-4.9646,-4.9657,-4.951,-4.9509,-4.9508,-4.9508,0,0,-4.9093,-4.9169,-4.9183,-4.9212,-4.9268,-4.9309,-4.9365,-4.942,-4.945,-4.9491,-4.9538,-4.9607,-4.9597,-4.9626,-4.9633,-4.9671,-4.9739,-4.9653,-4.9654,-4.9668,-4.9828,-4.9838,-4.9851,-4.9736,-4.9738,-4.974,-4.9825,0,-4.9167,-4.9271,-4.9291,-4.938,-4.9431,-4.9435,-4.9485,-4.9524,-4.9545,-4.959,-4.9612,-4.9662,-4.9643,-4.9661,-4.9699,-4.9723,-4.9771,-4.9717,-4.9779,-4.9781,-4.9769,-4.9866,-4.9875,-4.9954,-4.9836,-4.9838,-4.9839,0,-4.9266,-4.9316,-4.9411,-4.9464,-4.9486,-4.9531,-4.9585,-4.9628,-4.9673,-4.9686,-4.9722,-4.9727,-4.9785,-4.9754,-4.9835,-4.9798,-4.9825,-4.9841,-4.9844,-4.9849,-4.9813,-4.9874,-4.9979,-4.9991,-4.9857,-4.9856,-4.9854,0,-4.9311,-4.9401,-4.9471,-4.9496,-4.9559,-4.9591,-4.9618,-4.9661,-4.9694,-4.974,-4.9762,-4.9814,-4.9841,-4.9881,-4.99,-4.9875,-4.998,-4.9949,-4.9991,-4.9991,-5.0012,-5.001,-5.0123,-5.003,-5.003,-5.003,-5.0029,0,-4.9392,-4.945,-4.9493,-4.9536,-4.9602,-4.9625,-4.9689,-4.9715,-4.9755,-4.9802,-4.9808,-4.9851,-4.9874,-4.9921,-4.9936,-5.0002,-5.0014,-5.0025,-5.0029,-5.0025,-5.0024,-5.0042,-5.0036,-5.0033,-5.0032,-5.0031,-5.0031,0,-4.9452,-4.9483,-4.956,-4.9616,-4.9631,-4.9677,-4.9724,-4.9766,-4.9789,-4.9849,-4.9864,-4.99,-4.9956,-4.998,-5.0047,-5.0058,-5.0133,-5.0132,-5.0119,-5.012,-5.0161,-5.0157,-5.0289,-5.0308,-5.0203,-5.0204,-5.0205,0,-4.95,-4.9546,-4.9609,-4.9644,-4.9673,-4.9727,-4.9763,-4.9788,-4.9824,-4.9882,-4.9916,-4.9974,-5.0021,-5.0111,-5.0141,-5.0194,-5.0194,-5.0237,-5.0201,-5.0197,-5.0195,-5.0192,-5.0197,-5.0242,-5.0243,-5.0244,-5.0245,0,-4.9584,-4.9599,-4.9651,-4.9711,-4.9755,-4.9802,-4.9847,-4.9874,-4.9906,-4.9947,-5.0007,-5.0044,-5.0117,-5.0174,-5.0229,-5.0255,-5.0255,-5.0257,-5.0269,-5.0265,-5.0256,-5.0263,-5.0137,-5.0253,-5.0252,-5.0251,-5.0251,-5.0251,-4.964,-4.9683,-4.9735,-4.9795,-4.9833,-4.9877,-4.9921,-4.9952,-5.0004,-5.0067,-5.0078,-5.0143,-5.0189,-5.0264,-5.0293,-5.0343,-5.0332,-5.0349,-5.0354,-5.0358,-5.0361,-5.025,-5.0353,-5.0352,-5.0352,-5.0352,-5.0352,0,-4.9725,-4.976,-4.9815,-4.9882,-4.993,-4.9931,-4.9983,-5.0021,-5.0079,-5.0124,-5.0173,-5.0243,-5.03,-5.0337,-5.0394,-5.0427,-5.0428,-5.0441,-5.0438,-5.0444,-5.0367,-5.0351,-5.0439,-5.0439,-5.0439,-5.0439,-5.0439,-5.0438,-4.9774,-4.9848,-4.9869,-4.9962,-4.9997,-5.0063,-5.0093,-5.0134,-5.017,-5.025,-5.0299,-5.0324,-5.0367,-5.0428,-5.048,-5.0489,-5.051,-5.0523,-5.0531,-5.0458,-5.0449,-5.0441,-5.0426,-5.0527,-5.0527,-5.0604,-5.0605,-5.0605]}]]